When you browse on this site, cookies collect data to enhance your experience and personalize the content and advertising you see.
Visit our Privacy Policy to learn more. By continuing to use the site, you agree to this use of cookies and data.

Hourly Weather Kaposvar

Today, 26 September, Saturday

Time Temperature Precipitation Wind Pressure Humidity
00:00 +17°C° 1.2 mm 4 mps 729 mmHg 92%
01:00 +15°C° 0 mm 4 mps 730 mmHg 91%
02:00 +14°C° 0.5 mm 4 mps 730 mmHg 91%
03:00 +12°C° 0.5 mm 4 mps 730 mmHg 91%
04:00 +11°C° 0.5 mm 4 mps 730 mmHg 91%
05:00 +10°C° 0 mm 4 mps 730 mmHg 89%
06:00 +9°C° 0 mm 5 mps 731 mmHg 87%
07:00 +8°C° 0 mm 5 mps 731 mmHg 86%
08:00 +9°C° 0 mm 5 mps 732 mmHg 79%
09:00 +12°C° 0 mm 4 mps 732 mmHg 72%
10:00 +13°C° 0 mm 4 mps 733 mmHg 65%
11:00 +14°C° 0 mm 4 mps 733 mmHg 61%
12:00 +14°C° 0 mm 4 mps 733 mmHg 58%
13:00 +15°C° 0 mm 5 mps 733 mmHg 54%
14:00 +15°C° 0 mm 5 mps 733 mmHg 54%
15:00 +15°C° 0 mm 5 mps 733 mmHg 55%
16:00 +14°C° 0 mm 5 mps 734 mmHg 56%
17:00 +13°C° 0 mm 6 mps 734 mmHg 56%
18:00 +11°C° 0 mm 6 mps 734 mmHg 56%
19:00 +11°C° 0 mm 7 mps 735 mmHg 57%
20:00 +10°C° 0 mm 6 mps 735 mmHg 59%
21:00 +9°C° 0 mm 5 mps 736 mmHg 62%
22:00 +8°C° 0 mm 4 mps 736 mmHg 64%
23:00 +8°C° 0 mm 4 mps 737 mmHg 65%

Tomorrow, 27 September, Sunday

Time Temperature Precipitation Wind Pressure Humidity
00:00 +8°C° 0 mm 4 mps 737 mmHg 66%
01:00 +9°C° 0 mm 3 mps 737 mmHg 66%
02:00 +9°C° 0 mm 3 mps 738 mmHg 69%
03:00 +8°C° 0 mm 2 mps 738 mmHg 72%
04:00 +8°C° 0 mm 2 mps 738 mmHg 74%
05:00 +8°C° 0 mm 2 mps 739 mmHg 73%
06:00 +8°C° 0 mm 2 mps 739 mmHg 72%
07:00 +8°C° 0 mm 3 mps 740 mmHg 71%
08:00 +10°C° 0 mm 3 mps 740 mmHg 63%
09:00 +12°C° 0 mm 3 mps 741 mmHg 55%
10:00 +14°C° 0 mm 3 mps 741 mmHg 48%
11:00 +15°C° 0 mm 4 mps 741 mmHg 44%
12:00 +17°C° 0 mm 4 mps 742 mmHg 41%
13:00 +19°C° 0 mm 4 mps 742 mmHg 37%
14:00 +18°C° 0 mm 4 mps 741 mmHg 38%
15:00 +18°C° 0 mm 4 mps 741 mmHg 39%
16:00 +18°C° 0 mm 4 mps 741 mmHg 39%
17:00 +17°C° 0 mm 4 mps 741 mmHg 44%
18:00 +14°C° 0 mm 4 mps 741 mmHg 48%
19:00 +13°C° 0 mm 3 mps 742 mmHg 53%
20:00 +13°C° 0.1 mm 4 mps 741 mmHg 58%
21:00 +13°C° 0.1 mm 4 mps 741 mmHg 64%
22:00 +13°C° 0.1 mm 5 mps 740 mmHg 70%
23:00 +13°C° 1 mm 6 mps 740 mmHg 73%

Day after tomorrow, 28 September, Monday

Time Temperature Precipitation Wind Pressure Humidity
00:00 +11°C° 1 mm 6 mps 739 mmHg 77%
01:00 +11°C° 1 mm 7 mps 738 mmHg 80%
02:00 +11°C° 1.2 mm 7 mps 738 mmHg 82%
03:00 +11°C° 1.2 mm 7 mps 738 mmHg 83%
04:00 +11°C° 1.2 mm 6 mps 738 mmHg 84%
05:00 +11°C° 0 mm 6 mps 738 mmHg 84%
06:00 +13°C° 0 mm 5 mps 738 mmHg 83%
07:00 +13°C° 0 mm 5 mps 738 mmHg 82%
08:00 +15°C° 0.1 mm 5 mps 738 mmHg 73%
09:00 +17°C° 0.1 mm 6 mps 739 mmHg 65%
10:00 +20°C° 0.1 mm 6 mps 739 mmHg 57%
11:00 +20°C° 0.3 mm 6 mps 739 mmHg 56%
12:00 +20°C° 0.3 mm 6 mps 740 mmHg 54%
13:00 +20°C° 0.3 mm 6 mps 740 mmHg 53%
14:00 +19°C° 0.3 mm 5 mps 740 mmHg 57%
15:00 +19°C° 0.3 mm 4 mps 740 mmHg 61%
16:00 +18°C° 0.3 mm 4 mps 741 mmHg 64%
17:00 +17°C° 0 mm 3 mps 741 mmHg 71%
18:00 +14°C° 0 mm 3 mps 741 mmHg 78%
19:00 +14°C° 0 mm 2 mps 742 mmHg 84%
20:00 +13°C° 0 mm 2 mps 742 mmHg 87%
21:00 +12°C° 0 mm 2 mps 743 mmHg 91%
22:00 +10°C° 0 mm 2 mps 743 mmHg 94%
23:00 +11°C° 0 mm 3 mps 744 mmHg 92%

29 September, Tuesday

Time Temperature Precipitation Wind Pressure Humidity
00:00 +11°C° 0 mm 3 mps 744 mmHg 89%
01:00 +11°C° 0 mm 3 mps 744 mmHg 87%
02:00 +11°C° 0 mm 3 mps 744 mmHg 87%
03:00 +11°C° 0 mm 4 mps 744 mmHg 86%
04:00 +11°C° 0 mm 4 mps 745 mmHg 86%
05:00 +11°C° 0 mm 4 mps 745 mmHg 86%
06:00 +11°C° 0 mm 3 mps 745 mmHg 87%
07:00 +11°C° 0 mm 3 mps 745 mmHg 87%
08:00 +12°C° 0 mm 3 mps 745 mmHg 79%
09:00 +14°C° 0 mm 3 mps 746 mmHg 71%
10:00 +15°C° 0 mm 4 mps 746 mmHg 64%
11:00 +17°C° 0 mm 4 mps 746 mmHg 58%
12:00 +18°C° 0 mm 4 mps 746 mmHg 52%
13:00 +19°C° 0 mm 4 mps 746 mmHg 47%
14:00 +19°C° 0 mm 4 mps 746 mmHg 47%
15:00 +19°C° 0 mm 4 mps 746 mmHg 47%
16:00 +19°C° 0 mm 3 mps 745 mmHg 47%
17:00 +17°C° 0 mm 3 mps 746 mmHg 54%
18:00 +15°C° 0 mm 2 mps 746 mmHg 60%
19:00 +14°C° 0 mm 1 mps 746 mmHg 67%
20:00 +13°C° 0 mm 1 mps 746 mmHg 69%
21:00 +13°C° 0 mm 1 mps 746 mmHg 72%
22:00 +13°C° 0 mm 1 mps 747 mmHg 74%
23:00 +13°C° 0 mm 1 mps 747 mmHg 75%

30 September, Wednesday

Time Temperature Precipitation Wind Pressure Humidity
00:00 +12°C° 0 mm 1 mps 747 mmHg 77%
01:00 +12°C° 0 mm 1 mps 746 mmHg 78%
02:00 +12°C° 0 mm 1 mps 746 mmHg 80%
03:00 +12°C° 0 mm 1 mps 746 mmHg 82%
04:00 +10°C° 0 mm 2 mps 746 mmHg 83%
05:00 +12°C° 0 mm 2 mps 746 mmHg 81%
06:00 +12°C° 0 mm 2 mps 746 mmHg 79%
07:00 +12°C° 0 mm 2 mps 746 mmHg 77%
08:00 +13°C° 0 mm 3 mps 746 mmHg 70%
09:00 +16°C° 0 mm 3 mps 745 mmHg 62%
10:00 +18°C° 0 mm 3 mps 745 mmHg 55%
11:00 +18°C° 0 mm 3 mps 745 mmHg 56%
12:00 +18°C° 0 mm 3 mps 744 mmHg 58%
13:00 +18°C° 0 mm 3 mps 744 mmHg 59%
14:00 +18°C° 0 mm 3 mps 744 mmHg 58%
15:00 +19°C° 0 mm 3 mps 743 mmHg 58%
16:00 +19°C° 0 mm 3 mps 743 mmHg 57%
17:00 +18°C° 0 mm 3 mps 743 mmHg 65%
18:00 +16°C° 0 mm 3 mps 743 mmHg 72%
19:00 +14°C° 0 mm 3 mps 743 mmHg 80%
20:00 +14°C° 0 mm 3 mps 743 mmHg 82%
21:00 +13°C° 0 mm 3 mps 743 mmHg 85%
22:00 +14°C° 0 mm 2 mps 743 mmHg 87%
23:00 +13°C° 0 mm 2 mps 743 mmHg 88%

1 October, Thursday

Time Temperature Precipitation Wind Pressure Humidity
00:00 +13°C° 0 mm 2 mps 743 mmHg 89%
01:00 +13°C° 0 mm 2 mps 742 mmHg 90%
02:00 +12°C° 0 mm 2 mps 742 mmHg 91%
03:00 +12°C° 0 mm 2 mps 742 mmHg 92%
04:00 +12°C° 0 mm 2 mps 742 mmHg 92%
05:00 +12°C° 0 mm 2 mps 742 mmHg 90%
06:00 +13°C° 0 mm 2 mps 742 mmHg 88%
07:00 +13°C° 0 mm 2 mps 742 mmHg 86%
08:00 +14°C° 0 mm 3 mps 742 mmHg 76%
09:00 +17°C° 0 mm 3 mps 741 mmHg 67%
10:00 +19°C° 0 mm 4 mps 741 mmHg 57%
11:00 +20°C° 0 mm 4 mps 741 mmHg 55%
12:00 +21°C° 0 mm 4 mps 740 mmHg 52%
13:00 +21°C° 0 mm 3 mps 740 mmHg 49%
14:00 +21°C° 0 mm 3 mps 740 mmHg 51%
15:00 +21°C° 0 mm 3 mps 739 mmHg 52%
16:00 +21°C° 0 mm 2 mps 739 mmHg 54%
17:00 +19°C° 0 mm 2 mps 739 mmHg 59%
18:00 +19°C° 0 mm 1 mps 739 mmHg 65%
19:00 +16°C° 0 mm 1 mps 739 mmHg 71%
20:00 +16°C° 0 mm 1 mps 739 mmHg 73%
21:00 +15°C° 0 mm 2 mps 739 mmHg 75%
22:00 +15°C° 0 mm 2 mps 739 mmHg 77%
23:00 +14°C° 0 mm 2 mps 739 mmHg 79%
Show more